Back to catalog

NAVSTAR 72

USA 258

AliveNavigationHEO
NORAD 40294·PAYLOAD·🇺🇸 United States

Launched Oct 29, 2014 from Cape Canaveral Space Force Station

Loading…

Next Passes (next 24 hours)

TLE

FreshSource: CelesTrak SupGP

Epoch: Sep 16, 2026, 16:44 UTC

1 40294C 14068A   26259.69756944  .00000000  00000+0  00000+0 0  2599
2 40294  57.0469  27.4368 0067016  73.8748 310.8574  2.00557401    12

Track NAVSTAR 72 in real time with AllMySat

Download on the App Store